Time,TemperatureF,DewpointF,PressureIn,WindDirection,WindDirectionDegrees,WindSpeedMPH,WindSpeedGustMPH,Humidity,HourlyPrecipIn,Conditions,Clouds,dailyrainin,SoftwareType,DateUTC
2013-07-16 00:11:00,82.0,74.4,29.85,East,90,6.3,-999.0,78,-99.99,,,0.00,Acu-Link.com,2013-07-16 05:11:00,
2013-07-16 00:26:00,82.0,74.4,29.85,East,90,5.3,-999.0,78,-99.99,,,0.00,Acu-Link.com,2013-07-16 05:26:00,
2013-07-16 00:41:00,81.9,74.3,29.85,ESE,112,3.7,-999.0,78,-99.99,,,0.00,Acu-Link.com,2013-07-16 05:41:00,
2013-07-16 00:56:00,81.5,74.3,29.84,NE,45,4.2,-999.0,79,-99.99,,,0.00,Acu-Link.com,2013-07-16 05:56:00,
2013-07-16 01:11:00,81.5,74.3,29.84,ESE,112,4.2,-999.0,79,-99.99,,,0.00,Acu-Link.com,2013-07-16 06:11:00,
2013-07-16 01:26:00,81.3,74.1,29.85,East,90,2.7,-999.0,79,-99.99,,,0.00,Acu-Link.com,2013-07-16 06:26:00,
2013-07-16 01:41:00,81.5,74.0,29.83,ESE,112,2.7,-999.0,78,-99.99,,,0.00,Acu-Link.com,2013-07-16 06:41:00,
2013-07-16 01:56:00,81.5,73.2,29.82,ENE,67,5.8,-999.0,76,-99.99,,,0.00,Acu-Link.com,2013-07-16 06:56:00,
2013-07-16 02:12:00,81.5,73.2,29.84,East,90,4.2,-999.0,76,-99.99,,,0.00,Acu-Link.com,2013-07-16 07:12:00,
2013-07-16 02:27:00,80.6,71.9,29.84,ESE,112,4.2,-999.0,75,-99.99,,,0.00,Acu-Link.com,2013-07-16 07:27:00,
2013-07-16 02:42:00,80.4,72.1,29.83,ESE,112,5.8,-999.0,76,-99.99,,,0.00,Acu-Link.com,2013-07-16 07:42:00,
2013-07-16 02:57:00,80.1,72.2,29.81,East,90,3.7,-999.0,77,-99.99,,,0.00,Acu-Link.com,2013-07-16 07:57:00,
2013-07-16 03:12:00,80.1,72.2,29.80,East,90,3.2,-999.0,77,-99.99,,,0.00,Acu-Link.com,2013-07-16 08:12:00,
2013-07-16 03:43:00,79.5,72.0,29.82,East,90,1.1,-999.0,78,-99.99,,,0.00,Acu-Link.com,2013-07-16 08:43:00,
2013-07-16 03:58:00,79.2,72.5,29.83,ENE,67,0.0,-999.0,80,-99.99,,,0.00,Acu-Link.com,2013-07-16 08:58:00,
2013-07-16 04:13:00,78.8,72.5,29.81,ESE,112,0.0,-999.0,81,-99.99,,,0.00,Acu-Link.com,2013-07-16 09:13:00,
2013-07-16 04:28:00,79.0,73.4,29.79,ESE,112,2.2,-999.0,83,-99.99,,,0.00,Acu-Link.com,2013-07-16 09:28:00,
2013-07-16 04:43:00,80.4,73.3,29.80,East,90,4.2,-999.0,79,-99.99,,,0.00,Acu-Link.com,2013-07-16 09:43:00,
2013-07-16 04:59:00,80.4,73.3,29.81,SE,135,2.2,-999.0,79,-99.99,,,0.00,Acu-Link.com,2013-07-16 09:59:00,
2013-07-16 05:14:00,80.4,73.3,29.80,ENE,67,1.1,-999.0,79,-99.99,,,0.00,Acu-Link.com,2013-07-16 10:14:00,
2013-07-16 05:29:00,80.2,73.1,29.79,East,90,2.2,-999.0,79,-99.99,,,0.00,Acu-Link.com,2013-07-16 10:29:00,
2013-07-16 05:44:00,80.1,73.4,29.80,ESE,112,2.2,-999.0,80,-99.99,,,0.00,Acu-Link.com,2013-07-16 10:44:00,
2013-07-16 05:59:00,79.9,73.2,29.82,ESE,112,3.7,-999.0,80,-99.99,,,0.00,Acu-Link.com,2013-07-16 10:59:00,
2013-07-16 06:14:00,79.9,73.2,29.83,ENE,67,1.7,-999.0,80,-99.99,,,0.00,Acu-Link.com,2013-07-16 11:14:00,
2013-07-16 06:29:00,79.5,72.8,29.80,NE,45,0.0,-999.0,80,-99.99,,,0.00,Acu-Link.com,2013-07-16 11:29:00,
2013-07-16 06:44:00,79.7,73.3,29.80,East,90,1.7,-999.0,81,-99.99,,,0.00,Acu-Link.com,2013-07-16 11:44:00,
2013-07-16 07:00:00,80.2,73.8,29.83,ESE,112,3.2,-999.0,81,-99.99,,,0.00,Acu-Link.com,2013-07-16 12:00:00,
2013-07-16 07:15:00,80.6,74.6,29.82,ESE,112,8.3,-999.0,82,-99.99,,,0.00,Acu-Link.com,2013-07-16 12:15:00,
2013-07-16 07:30:00,79.0,74.1,29.81,NE,45,3.2,-999.0,85,-99.99,,,0.02,Acu-Link.com,2013-07-16 12:30:00,
2013-07-16 07:45:00,79.2,74.3,29.81,NE,45,2.7,-999.0,85,-99.99,,,0.02,Acu-Link.com,2013-07-16 12:45:00,
2013-07-16 08:00:00,79.3,73.3,29.81,ENE,67,4.2,-999.0,82,-99.99,,,0.02,Acu-Link.com,2013-07-16 13:00:00,
2013-07-16 08:15:00,79.3,72.6,29.81,ENE,67,3.7,-999.0,80,-99.99,,,0.02,Acu-Link.com,2013-07-16 13:15:00,
2013-07-16 08:30:00,79.7,72.2,29.82,NE,45,2.7,-999.0,78,-99.99,,,0.02,Acu-Link.com,2013-07-16 13:30:00,
2013-07-16 08:45:00,81.3,73.8,29.82,East,90,5.8,-999.0,78,-99.99,,,0.02,Acu-Link.com,2013-07-16 13:45:00,
2013-07-16 09:00:00,82.4,74.4,29.83,ESE,112,10.4,-999.0,77,-99.99,,,0.02,Acu-Link.com,2013-07-16 14:00:00,
2013-07-16 09:16:00,84.0,74.8,29.82,ENE,67,8.3,-999.0,74,-99.99,,,0.02,Acu-Link.com,2013-07-16 14:16:00,
2013-07-16 09:31:00,81.5,74.0,29.82,East,90,7.3,-999.0,78,-99.99,,,0.03,Acu-Link.com,2013-07-16 14:31:00,
2013-07-16 09:46:00,82.2,75.0,29.82,East,90,7.3,-999.0,79,-99.99,,,0.03,Acu-Link.com,2013-07-16 14:46:00,
2013-07-16 10:01:00,83.8,75.0,29.82,SE,135,7.8,-999.0,75,-99.99,,,0.03,Acu-Link.com,2013-07-16 15:01:00,
2013-07-16 10:16:00,85.8,75.7,29.82,ENE,67,6.8,-999.0,72,-99.99,,,0.04,Acu-Link.com,2013-07-16 15:16:00,
2013-07-16 10:31:00,88.3,76.8,29.82,East,90,5.8,-999.0,69,-99.99,,,0.04,Acu-Link.com,2013-07-16 15:31:00,
2013-07-16 10:46:00,87.3,76.3,29.83,East,90,8.9,-999.0,70,-99.99,,,0.04,Acu-Link.com,2013-07-16 15:46:00,
2013-07-16 11:01:00,86.0,75.9,29.83,NE,45,4.2,-999.0,72,-99.99,,,0.04,Acu-Link.com,2013-07-16 16:01:00,
2013-07-16 11:16:00,89.4,75.6,29.84,ENE,67,6.3,-999.0,64,-99.99,,,0.04,Acu-Link.com,2013-07-16 16:16:00,
2013-07-16 11:32:00,88.9,76.0,29.85,ENE,67,3.2,-999.0,66,-99.99,,,0.04,Acu-Link.com,2013-07-16 16:32:00,
2013-07-16 11:47:00,87.8,75.0,29.87,ENE,67,7.3,-999.0,66,-99.99,,,0.04,Acu-Link.com,2013-07-16 16:47:00,
2013-07-16 12:02:00,89.8,76.9,29.86,SSE,157,8.9,-999.0,66,-99.99,,,0.04,Acu-Link.com,2013-07-16 17:02:00,
2013-07-16 12:17:00,88.7,74.9,29.84,ENE,67,11.4,-999.0,64,-99.99,,,0.04,Acu-Link.com,2013-07-16 17:17:00,
2013-07-16 12:32:00,87.1,75.7,29.84,ESE,112,8.3,-999.0,69,-99.99,,,0.04,Acu-Link.com,2013-07-16 17:32:00,
2013-07-16 12:47:00,90.1,76.2,29.84,ESE,112,3.7,-999.0,64,-99.99,,,0.04,Acu-Link.com,2013-07-16 17:47:00,
2013-07-16 13:02:00,93.4,76.9,29.84,ESE,112,6.8,-999.0,59,-99.99,,,0.04,Acu-Link.com,2013-07-16 18:02:00,
2013-07-16 13:17:00,90.9,76.0,29.87,SE,135,15.0,-999.0,62,-99.99,,,0.04,Acu-Link.com,2013-07-16 18:17:00,
2013-07-16 13:32:00,79.3,72.6,29.88,East,90,9.4,-999.0,80,-99.99,,,0.07,Acu-Link.com,2013-07-16 18:32:00,
2013-07-16 13:48:00,77.4,72.9,29.87,East,90,9.4,-999.0,86,-99.99,,,0.20,Acu-Link.com,2013-07-16 18:48:00,
2013-07-16 14:03:00,77.7,73.2,29.84,NE,45,4.2,-999.0,86,-99.99,,,0.31,Acu-Link.com,2013-07-16 19:03:00,
2013-07-16 14:18:00,80.2,75.3,29.84,East,90,4.2,-999.0,85,-99.99,,,0.31,Acu-Link.com,2013-07-16 19:18:00,
2013-07-16 14:33:00,86.2,77.3,29.84,NE,45,4.2,-999.0,75,-99.99,,,0.31,Acu-Link.com,2013-07-16 19:33:00,
2013-07-16 14:48:00,82.2,73.9,29.87,NNE,22,2.7,-999.0,76,-99.99,,,0.31,Acu-Link.com,2013-07-16 19:48:00,
2013-07-16 15:03:00,79.0,74.1,29.85,East,90,8.9,-999.0,85,-99.99,,,0.40,Acu-Link.com,2013-07-16 20:03:00,
2013-07-16 15:18:00,78.6,74.0,29.83,ESE,112,3.2,-999.0,86,-99.99,,,0.69,Acu-Link.com,2013-07-16 20:18:00,
2013-07-16 15:33:00,77.9,73.7,29.83,ESE,112,2.7,-999.0,87,-99.99,,,0.69,Acu-Link.com,2013-07-16 20:33:00,
2013-07-16 15:48:00,78.4,74.2,29.84,ESE,112,4.2,-999.0,87,-99.99,,,0.69,Acu-Link.com,2013-07-16 20:48:00,
2013-07-16 16:04:00,79.2,75.3,29.85,ESE,112,1.7,-999.0,88,-99.99,,,0.70,Acu-Link.com,2013-07-16 21:04:00,
2013-07-16 16:19:00,80.2,76.0,29.83,NE,45,4.7,-999.0,87,-99.99,,,0.70,Acu-Link.com,2013-07-16 21:19:00,
2013-07-16 16:34:00,81.1,75.8,29.82,East,90,2.2,-999.0,84,-99.99,,,0.70,Acu-Link.com,2013-07-16 21:34:00,
2013-07-16 16:49:00,82.0,75.9,29.84,ENE,67,5.3,-999.0,82,-99.99,,,0.70,Acu-Link.com,2013-07-16 21:49:00,
2013-07-16 17:04:00,82.9,75.7,29.85,ENE,67,5.3,-999.0,79,-99.99,,,0.70,Acu-Link.com,2013-07-16 22:04:00,
2013-07-16 17:19:00,83.3,75.7,29.85,ENE,67,4.2,-999.0,78,-99.99,,,0.70,Acu-Link.com,2013-07-16 22:19:00,
2013-07-16 17:34:00,82.2,73.1,29.84,ESE,112,4.2,-999.0,74,-99.99,,,0.70,Acu-Link.com,2013-07-16 22:34:00,
2013-07-16 17:49:00,79.7,72.6,29.82,ESE,112,2.7,-999.0,79,-99.99,,,0.70,Acu-Link.com,2013-07-16 22:49:00,
2013-07-16 18:04:00,79.2,73.9,29.84,ESE,112,1.1,-999.0,84,-99.99,,,0.74,Acu-Link.com,2013-07-16 23:04:00,
2013-07-16 18:20:00,80.2,74.9,29.84,East,90,8.9,-999.0,84,-99.99,,,0.74,Acu-Link.com,2013-07-16 23:20:00,
2013-07-16 18:35:00,81.1,75.1,29.84,East,90,5.3,-999.0,82,-99.99,,,0.74,Acu-Link.com,2013-07-16 23:35:00,
2013-07-16 18:50:00,81.1,74.3,29.82,East,90,13.0,-999.0,80,-99.99,,,0.74,Acu-Link.com,2013-07-16 23:50:00,
2013-07-16 19:06:00,78.3,73.4,29.84,NE,45,3.7,-999.0,85,-99.99,,,0.78,Acu-Link.com,2013-07-17 00:06:00,
2013-07-16 19:21:00,78.6,73.3,29.86,ENE,67,2.7,-999.0,84,-99.99,,,0.78,Acu-Link.com,2013-07-17 00:21:00,
2013-07-16 19:36:00,79.2,73.9,29.87,East,90,4.7,-999.0,84,-99.99,,,0.78,Acu-Link.com,2013-07-17 00:36:00,
2013-07-16 19:51:00,79.2,74.3,29.87,East,90,5.3,-999.0,85,-99.99,,,0.78,Acu-Link.com,2013-07-17 00:51:00,
2013-07-16 20:06:00,79.2,74.6,29.85,NE,45,2.7,-999.0,86,-99.99,,,0.78,Acu-Link.com,2013-07-17 01:06:00,
2013-07-16 20:21:00,79.2,73.9,29.86,ENE,67,1.7,-999.0,84,-99.99,,,0.78,Acu-Link.com,2013-07-17 01:21:00,
2013-07-16 20:36:00,79.5,73.9,29.88,East,90,4.2,-999.0,83,-99.99,,,0.78,Acu-Link.com,2013-07-17 01:36:00,
2013-07-16 20:51:00,79.7,73.7,29.88,ENE,67,4.2,-999.0,82,-99.99,,,0.78,Acu-Link.com,2013-07-17 01:51:00,
2013-07-16 21:06:00,80.2,73.8,29.87,East,90,5.3,-999.0,81,-99.99,,,0.78,Acu-Link.com,2013-07-17 02:06:00,
2013-07-16 21:22:00,75.6,70.8,29.86,NNE,22,4.7,-999.0,85,-99.99,,,0.80,Acu-Link.com,2013-07-17 02:22:00,
2013-07-16 21:37:00,75.6,71.8,29.89,ENE,67,4.7,-999.0,88,-99.99,,,0.89,Acu-Link.com,2013-07-17 02:37:00,
2013-07-16 21:52:00,75.9,72.7,29.90,NE,45,2.7,-999.0,90,-99.99,,,0.89,Acu-Link.com,2013-07-17 02:52:00,
2013-07-16 22:07:00,76.5,74.0,29.90,ENE,67,1.7,-999.0,92,-99.99,,,0.90,Acu-Link.com,2013-07-17 03:07:00,
2013-07-16 22:22:00,76.6,74.4,29.91,East,90,0.0,-999.0,93,-99.99,,,0.90,Acu-Link.com,2013-07-17 03:22:00,
2013-07-16 22:37:00,76.8,74.6,29.92,ENE,67,2.2,-999.0,93,-99.99,,,0.90,Acu-Link.com,2013-07-17 03:37:00,
2013-07-16 22:52:00,76.5,74.3,29.92,ENE,67,2.7,-999.0,93,-99.99,,,0.90,Acu-Link.com,2013-07-17 03:52:00,
2013-07-16 23:07:00,76.5,74.3,29.92,ENE,67,1.7,-999.0,93,-99.99,,,0.90,Acu-Link.com,2013-07-17 04:07:00,
2013-07-16 23:22:00,76.5,74.3,29.93,NE,45,2.2,-999.0,93,-99.99,,,0.90,Acu-Link.com,2013-07-17 04:22:00,
2013-07-16 23:38:00,76.3,74.1,29.93,ENE,67,3.2,-999.0,93,-99.99,,,0.90,Acu-Link.com,2013-07-17 04:38:00,
2013-07-16 23:53:00,76.5,74.0,29.90,NE,45,2.7,-999.0,92,-99.99,,,0.90,Acu-Link.com,2013-07-17 04:53:00,